TimeCST,TemperatureF,Dew PointF,Humidity,Sea Level PressureIn,VisibilityMPH,Wind Direction,Wind SpeedMPH,Gust SpeedMPH,PrecipitationIn,Events,Conditions,WindDirDegrees,DateUTC
12:52 AM,12.0,3.9,70,30.28,10.0,NNW,13.8,-,N/A,,Clear,330,2013-02-15 06:52:00
1:52 AM,10.9,5.0,77,30.29,10.0,NW,8.1,-,N/A,,Clear,320,2013-02-15 07:52:00
2:52 AM,10.9,5.0,77,30.30,10.0,NW,10.4,-,N/A,,Clear,320,2013-02-15 08:52:00
3:52 AM,10.0,3.9,76,30.30,10.0,NW,10.4,-,N/A,,Clear,320,2013-02-15 09:52:00
4:52 AM,9.0,1.9,73,30.32,10.0,WNW,9.2,-,N/A,,Clear,300,2013-02-15 10:52:00
5:52 AM,10.0,3.9,76,30.32,10.0,NW,11.5,-,N/A,,Overcast,310,2013-02-15 11:52:00
6:52 AM,10.0,5.0,80,30.34,10.0,NW,11.5,-,N/A,,Clear,310,2013-02-15 12:52:00
7:52 AM,10.0,6.1,84,30.35,10.0,NW,10.4,-,N/A,,Clear,320,2013-02-15 13:52:00
8:52 AM,12.9,7.0,77,30.36,10.0,NW,12.7,-,N/A,,Clear,310,2013-02-15 14:52:00
9:52 AM,15.1,8.1,74,30.38,10.0,NW,15.0,-,N/A,,Clear,320,2013-02-15 15:52:00
10:52 AM,17.1,9.0,71,30.37,10.0,NNW,11.5,-,N/A,,Clear,330,2013-02-15 16:52:00
11:52 AM,18.0,10.0,71,30.37,10.0,NNW,12.7,-,N/A,,Clear,340,2013-02-15 17:52:00
12:52 PM,19.0,10.9,71,30.37,10.0,NNW,15.0,23.0,N/A,,Partly Cloudy,330,2013-02-15 18:52:00
1:52 PM,19.9,12.0,71,30.36,10.0,NNW,15.0,-,N/A,,Scattered Clouds,330,2013-02-15 19:52:00
2:50 PM,19.4,10.4,68,30.29,10.0,NNW,17.3,-,N/A,,Mostly Cloudy,340,2013-02-15 20:50:00
2:52 PM,19.9,10.9,68,30.36,10.0,North,16.1,-,N/A,,Mostly Cloudy,350,2013-02-15 20:52:00
3:52 PM,19.0,10.0,68,30.38,10.0,NNW,16.1,-,N/A,,Scattered Clouds,340,2013-02-15 21:52:00
4:09 PM,19.4,10.4,68,30.30,10.0,NNW,15.0,-,N/A,,Mostly Cloudy,340,2013-02-15 22:09:00
4:40 PM,19.4,10.4,68,30.30,10.0,NNW,17.3,-,N/A,,Scattered Clouds,340,2013-02-15 22:40:00
4:52 PM,18.0,9.0,68,30.38,10.0,NNW,15.0,-,N/A,,Clear,340,2013-02-15 22:52:00
5:52 PM,16.0,9.0,74,30.38,10.0,NNW,11.5,-,N/A,,Clear,330,2013-02-15 23:52:00
7:52 PM,14.0,8.1,77,30.38,10.0,NW,8.1,-,N/A,,Clear,320,2013-02-16 01:52:00
8:52 PM,12.9,8.1,81,30.38,10.0,WNW,5.8,-,N/A,,Clear,300,2013-02-16 02:52:00
9:52 PM,12.0,7.0,80,30.37,10.0,WNW,6.9,-,N/A,,Clear,300,2013-02-16 03:52:00
10:52 PM,12.0,7.0,80,30.36,10.0,WNW,6.9,-,N/A,,Clear,300,2013-02-16 04:52:00
11:52 PM,10.9,7.0,84,30.34,10.0,WNW,5.8,-,N/A,,Clear,290,2013-02-16 05:52:00